| time (UTC) | temp F | wind direction | speed MPH | gust MPH | rain 1hr in | rain 24hr in | rain mn in | humidity % | barometer mb |
| 20260508084904 | 60 | 160 | 0.0 | 0.0 | 0.00 | 0.00 | 0.00 | 82 | 1032.8 |
| 20260508084404 | 60 | 160 | 0.0 | 0.0 | 0.00 | 0.00 | 0.00 | 82 | 1032.8 |
| 20260508083904 | 60 | 160 | 0.0 | 0.0 | 0.00 | 0.00 | 0.00 | 82 | 1032.9 |
| 20260508083404 | 60 | 160 | 0.0 | 0.0 | 0.00 | 0.00 | 0.00 | 82 | 1033.0 |
| 20260508082403 | 60 | 160 | 0.0 | 0.0 | 0.00 | 0.00 | 0.00 | 81 | 1033.0 |
| 20260508081904 | 61 | 160 | 1.0 | 3.0 | 0.00 | 0.00 | 0.00 | 81 | 1033.1 |
| 20260508081404 | 61 | 160 | 0.0 | 2.0 | 0.00 | 0.00 | 0.00 | 81 | 1033.1 |
| 20260508080903 | 61 | 160 | 0.0 | 0.0 | 0.00 | 0.00 | 0.00 | 81 | 1033.2 |
| 20260508080403 | 61 | 160 | 0.0 | 0.0 | 0.00 | 0.00 | 0.00 | 80 | 1033.3 |
| 20260508075903 | 61 | 160 | 0.0 | 0.0 | 0.00 | 0.00 | 0.00 | 80 | 1033.3 |
| 20260508075404 | 61 | 160 | 0.0 | 0.0 | 0.00 | 0.00 | 0.00 | 80 | 1033.3 |
| 20260508074904 | 61 | 160 | 0.0 | 0.0 | 0.00 | 0.00 | 0.00 | 80 | 1033.4 |
| 20260508073904 | 62 | 160 | 0.0 | 0.0 | 0.00 | 0.00 | 0.00 | 79 | 1033.4 |
| 20260508072903 | 62 | 160 | 0.0 | 0.0 | 0.00 | 0.00 | 0.00 | 79 | 1033.4 |
| 20260508072403 | 62 | 160 | 0.0 | 5.0 | 0.00 | 0.00 | 0.00 | 79 | 1033.4 |
| 20260508071904 | 62 | 148 | 0.0 | 0.0 | 0.00 | 0.00 | 0.00 | 78 | 1033.4 |
| 20260508071404 | 62 | 148 | 0.0 | 0.0 | 0.00 | 0.00 | 0.00 | 78 | 1033.3 |
| 20260508070903 | 62 | 148 | 0.0 | 0.0 | 0.00 | 0.00 | 0.00 | 78 | 1033.4 |
| 20260508070405 | 62 | 148 | 0.0 | 2.0 | 0.00 | 0.00 | 0.00 | 78 | 1033.4 |
| 20260508064903 | 63 | 148 | 0.0 | 3.0 | 0.00 | 0.00 | 0.00 | 77 | 1033.3 |
| 20260508064403 | 63 | 148 | 0.0 | 3.0 | 0.00 | 0.00 | 0.00 | 77 | 1033.3 |
| 20260508063904 | 63 | 148 | 1.0 | 3.0 | 0.00 | 0.00 | 0.00 | 76 | 1033.3 |
| 20260508063403 | 63 | 137 | 1.0 | 5.0 | 0.00 | 0.00 | 0.00 | 75 | 1033.3 |
| 20260508062404 | 64 | 128 | 1.0 | 6.0 | 0.00 | 0.00 | 0.00 | 74 | 1033.3 |
| 20260508061904 | 64 | 139 | 3.0 | 3.0 | 0.00 | 0.00 | 0.00 | 74 | 1033.2 |
| 20260508061404 | 65 | 150 | 2.0 | 3.0 | 0.00 | 0.00 | 0.00 | 73 | 1033.2 |
| 20260508055903 | 65 | 135 | 1.0 | 5.0 | 0.00 | 0.00 | 0.00 | 72 | 1033.2 |
| 20260508054903 | 66 | 181 | 1.0 | 5.0 | 0.00 | 0.00 | 0.00 | 71 | 1033.1 |
| 20260508054403 | 66 | 144 | 2.0 | 6.0 | 0.00 | 0.00 | 0.00 | 71 | 1033.1 |
| 20260508053904 | 66 | 118 | 2.0 | 3.0 | 0.00 | 0.00 | 0.00 | 70 | 1033.0 |
| 20260508053403 | 66 | 150 | 0.0 | 3.0 | 0.00 | 0.00 | 0.00 | 70 | 1033.1 |
| 20260508052904 | 66 | 150 | 1.0 | 2.0 | 0.00 | 0.00 | 0.00 | 70 | 1033.1 |
| 20260508052403 | 66 | 206 | 1.0 | 2.0 | 0.00 | 0.00 | 0.00 | 69 | 1033.1 |
| 20260508051903 | 66 | 206 | 0.0 | 2.0 | 0.00 | 0.00 | 0.00 | 69 | 1033.1 |
| 20260508051403 | 66 | 206 | 2.0 | 5.0 | 0.00 | 0.00 | 0.00 | 69 | 1033.0 |
| 20260508050903 | 67 | 171 | 1.0 | 3.0 | 0.00 | 0.00 | 0.00 | 68 | 1033.1 |
| 20260508050404 | 67 | 207 | 1.0 | 2.0 | 0.00 | 0.00 | 0.00 | 68 | 1033.0 |
| 20260508045904 | 67 | 207 | 0.0 | 1.0 | 0.00 | 0.00 | 0.00 | 68 | 1032.9 |
| 20260508044903 | 67 | 184 | 2.0 | 3.0 | 0.00 | 0.00 | 0.00 | 67 | 1032.9 |
| 20260508043903 | 67 | 146 | 0.0 | 2.0 | 0.00 | 0.00 | 0.00 | 66 | 1032.7 |
| 20260508043403 | 68 | 144 | 0.0 | 0.0 | 0.00 | 0.00 | 0.00 | 66 | 1032.7 |
| 20260508042903 | 68 | 144 | 0.0 | 0.0 | 0.00 | 0.00 | 0.00 | 66 | 1032.6 |
| 20260508042403 | 68 | 144 | 0.0 | 2.0 | 0.00 | 0.00 | 0.00 | 66 | 1032.5 |
| 20260508041903 | 68 | 221 | 1.0 | 2.0 | 0.00 | 0.00 | 0.00 | 66 | 1032.5 |
| 20260508041404 | 68 | 221 | 0.0 | 2.0 | 0.00 | 0.00 | 0.00 | 66 | 1032.4 |
| 20260508040903 | 68 | 155 | 1.0 | 2.0 | 0.00 | 0.00 | 0.00 | 65 | 1032.2 |
| 20260508040403 | 68 | 187 | 0.0 | 3.0 | 0.00 | 0.00 | 0.00 | 65 | 1032.1 |
| 20260508035903 | 69 | 196 | 2.0 | 7.0 | 0.00 | 0.00 | 0.00 | 65 | 1032.0 |
| 20260508035403 | 69 | 204 | 3.0 | 7.0 | 0.00 | 0.00 | 0.00 | 63 | 1032.0 |
| 20260508034903 | 69 | 179 | 2.0 | 6.0 | 0.00 | 0.00 | 0.00 | 63 | 1032.0 |
| 20260508033904 | 70 | 207 | 2.0 | 5.0 | 0.00 | 0.00 | 0.00 | 61 | 1031.9 |
| 20260508033403 | 70 | 178 | 1.0 | 5.0 | 0.00 | 0.00 | 0.00 | 61 | 1031.8 |
| 20260508032903 | 71 | 187 | 1.0 | 3.0 | 0.00 | 0.00 | 0.00 | 60 | 1031.8 |
| 20260508032404 | 71 | 195 | 1.0 | 3.0 | 0.00 | 0.00 | 0.00 | 60 | 1031.7 |
| 20260508031903 | 71 | 156 | 0.0 | 2.0 | 0.00 | 0.00 | 0.00 | 60 | 1031.7 |
| 20260508030903 | 71 | 169 | 2.0 | 6.0 | 0.00 | 0.00 | 0.00 | 59 | 1031.5 |
| 20260508025903 | 72 | 180 | 3.0 | 7.0 | 0.00 | 0.00 | 0.00 | 57 | 1031.4 |
| 20260508025403 | 73 | 205 | 5.0 | 9.0 | 0.00 | 0.00 | 0.00 | 56 | 1031.3 |
| 20260508024903 | 73 | 215 | 7.0 | 12.0 | 0.00 | 0.00 | 0.00 | 55 | 1031.3 |
| 20260508024403 | 74 | 193 | 4.0 | 7.0 | 0.00 | 0.00 | 0.00 | 54 | 1031.3 |
| 20260508023904 | 75 | 197 | 3.0 | 7.0 | 0.00 | 0.00 | 0.00 | 53 | 1031.2 |
| 20260508023403 | 75 | 217 | 3.0 | 5.0 | 0.00 | 0.00 | 0.00 | 53 | 1031.1 |
| 20260508022404 | 76 | 187 | 2.0 | 5.0 | 0.00 | 0.00 | 0.00 | 52 | 1031.0 |
| 20260508021903 | 76 | 181 | 3.0 | 6.0 | 0.00 | 0.00 | 0.00 | 51 | 1031.0 |
| 20260508021403 | 76 | 185 | 2.0 | 6.0 | 0.00 | 0.00 | 0.00 | 51 | 1030.9 |
| 20260508020903 | 77 | 160 | 2.0 | 3.0 | 0.00 | 0.00 | 0.00 | 50 | 1030.9 |
| 20260508020404 | 77 | 165 | 2.0 | 7.0 | 0.00 | 0.00 | 0.00 | 50 | 1030.8 |
| 20260508015903 | 77 | 214 | 6.0 | 10.0 | 0.00 | 0.00 | 0.00 | 49 | 1030.7 |
| 20260508015403 | 77 | 202 | 7.0 | 12.0 | 0.00 | 0.00 | 0.00 | 49 | 1030.6 |
| 20260508014903 | 78 | 215 | 8.0 | 12.0 | 0.00 | 0.00 | 0.00 | 48 | 1030.5 |
| 20260508014404 | 78 | 223 | 10.0 | 14.0 | 0.00 | 0.00 | 0.00 | 48 | 1030.5 |
| 20260508013903 | 78 | 221 | 10.0 | 13.0 | 0.00 | 0.00 | 0.00 | 47 | 1030.5 |
| 20260508013403 | 79 | 218 | 6.0 | 12.0 | 0.00 | 0.00 | 0.00 | 48 | 1030.4 |
| 20260508012903 | 79 | 207 | 8.0 | 12.0 | 0.00 | 0.00 | 0.00 | 47 | 1030.5 |
| 20260508012404 | 79 | 210 | 8.0 | 13.0 | 0.00 | 0.00 | 0.00 | 46 | 1030.4 |
| 20260508011903 | 79 | 222 | 10.0 | 15.0 | 0.00 | 0.00 | 0.00 | 46 | 1030.5 |
| 20260508011403 | 80 | 214 | 10.0 | 14.0 | 0.00 | 0.00 | 0.00 | 45 | 1030.3 |
| 20260508010904 | 81 | 222 | 9.0 | 14.0 | 0.00 | 0.00 | 0.00 | 45 | 1030.3 |
| 20260508005904 | 82 | 221 | 9.0 | 13.0 | 0.00 | 0.00 | 0.00 | 43 | 1030.3 |
| 20260508005403 | 82 | 203 | 9.0 | 15.0 | 0.00 | 0.00 | 0.00 | 43 | 1030.2 |
| 20260508004903 | 83 | 216 | 11.0 | 17.0 | 0.00 | 0.00 | 0.00 | 42 | 1030.1 |
| 20260508004404 | 83 | 218 | 9.0 | 12.0 | 0.00 | 0.00 | 0.00 | 41 | 1030.1 |
| 20260508003903 | 83 | 210 | 6.0 | 12.0 | 0.00 | 0.00 | 0.00 | 42 | 1030.1 |
| 20260508003404 | 83 | 209 | 10.0 | 16.0 | 0.00 | 0.00 | 0.00 | 41 | 1030.1 |
| 20260508002903 | 84 | 215 | 7.0 | 16.0 | 0.00 | 0.00 | 0.00 | 40 | 1030.1 |
| 20260508002403 | 84 | 215 | 7.0 | 13.0 | 0.00 | 0.00 | 0.00 | 41 | 1030.0 |
| 20260508001904 | 85 | 213 | 6.0 | 15.0 | 0.00 | 0.00 | 0.00 | 40 | 1030.1 |
| 20260508000405 | 87 | 224 | 9.0 | 13.0 | 0.00 | 0.00 | 0.00 | 36 | 1030.0 |
| 20260507235904 | 87 | 224 | 9.0 | 14.0 | 0.00 | 0.00 | 0.00 | 34 | 1030.1 |
| 20260507235403 | 88 | 250 | 7.0 | 14.0 | 0.00 | 0.00 | 0.00 | 27 | 1030.0 |
| 20260507234904 | 88 | 299 | 7.0 | 12.0 | 0.00 | 0.00 | 0.00 | 23 | 1030.0 |
| 20260507234403 | 88 | 277 | 9.0 | 14.0 | 0.00 | 0.00 | 0.00 | 24 | 1030.0 |
| 20260507233904 | 88 | 256 | 7.0 | 13.0 | 0.00 | 0.00 | 0.00 | 24 | 1030.0 |
| 20260507233405 | 88 | 311 | 10.0 | 14.0 | 0.00 | 0.00 | 0.00 | 22 | 1030.0 |
| 20260507232903 | 88 | 288 | 8.0 | 12.0 | 0.00 | 0.00 | 0.00 | 24 | 1030.0 |
| 20260507232404 | 88 | 278 | 9.0 | 16.0 | 0.00 | 0.00 | 0.00 | 22 | 1030.0 |
| 20260507231903 | 88 | 277 | 11.0 | 16.0 | 0.00 | 0.00 | 0.00 | 23 | 1030.0 |
| 20260507231404 | 88 | 298 | 9.0 | 16.0 | 0.00 | 0.00 | 0.00 | 24 | 1030.0 |
| 20260507230903 | 88 | 292 | 9.0 | 18.0 | 0.00 | 0.00 | 0.00 | 24 | 1029.9 |
| 20260507230404 | 88 | 290 | 7.0 | 14.0 | 0.00 | 0.00 | 0.00 | 24 | 1029.9 |
| 20260507225904 | 88 | 274 | 10.0 | 16.0 | 0.00 | 0.00 | 0.00 | 25 | 1029.9 |
| 20260507225404 | 88 | 299 | 7.0 | 14.0 | 0.00 | 0.00 | 0.00 | 26 | 1029.9 |
| 20260507224903 | 88 | 281 | 10.0 | 13.0 | 0.00 | 0.00 | 0.00 | 27 | 1029.9 |
| 20260507224403 | 88 | 306 | 10.0 | 18.0 | 0.00 | 0.00 | 0.00 | 26 | 1030.0 |
| 20260507223903 | 88 | 283 | 9.0 | 17.0 | 0.00 | 0.00 | 0.00 | 27 | 1030.0 |
| 20260507223404 | 88 | 308 | 9.0 | 15.0 | 0.00 | 0.00 | 0.00 | 27 | 1030.0 |
| 20260507222404 | 88 | 277 | 12.0 | 16.0 | 0.00 | 0.00 | 0.00 | 27 | 1030.1 |
| 20260507221904 | 88 | 285 | 9.0 | 17.0 | 0.00 | 0.00 | 0.00 | 26 | 1030.1 |
| 20260507221404 | 88 | 298 | 10.0 | 15.0 | 0.00 | 0.00 | 0.00 | 27 | 1030.1 |
| 20260507220903 | 88 | 281 | 11.0 | 16.0 | 0.00 | 0.00 | 0.00 | 26 | 1030.2 |
| 20260507215403 | 88 | 306 | 6.0 | 15.0 | 0.00 | 0.00 | 0.00 | 28 | 1030.4 |
| 20260507214904 | 88 | 275 | 9.0 | 14.0 | 0.00 | 0.00 | 0.00 | 28 | 1030.4 |
| 20260507214403 | 88 | 314 | 9.0 | 17.0 | 0.00 | 0.00 | 0.00 | 28 | 1030.4 |
| 20260507213903 | 88 | 332 | 9.0 | 17.0 | 0.00 | 0.00 | 0.00 | 28 | 1030.5 |
| 20260507213403 | 88 | 307 | 6.0 | 12.0 | 0.00 | 0.00 | 0.00 | 29 | 1030.5 |
| 20260507212403 | 88 | 309 | 9.0 | 15.0 | 0.00 | 0.00 | 0.00 | 29 | 1030.8 |
| 20260507211904 | 88 | 306 | 9.0 | 15.0 | 0.00 | 0.00 | 0.00 | 29 | 1030.8 |
| 20260507211403 | 88 | 303 | 7.0 | 15.0 | 0.00 | 0.00 | 0.00 | 29 | 1030.8 |
| 20260507210904 | 88 | 307 | 9.0 | 17.0 | 0.00 | 0.00 | 0.00 | 29 | 1030.9 |
| 20260507210404 | 88 | 320 | 9.0 | 15.0 | 0.00 | 0.00 | 0.00 | 28 | 1031.0 |
| 20260507205904 | 87 | 300 | 7.0 | 14.0 | 0.00 | 0.00 | 0.00 | 28 | 1031.0 |
| 20260507205404 | 87 | 314 | 7.0 | 13.0 | 0.00 | 0.00 | 0.00 | 28 | 1031.0 |
| 20260507204903 | 87 | 294 | 7.0 | 14.0 | 0.00 | 0.00 | 0.00 | 28 | 1031.1 |
| 20260507204403 | 87 | 302 | 7.0 | 14.0 | 0.00 | 0.00 | 0.00 | 28 | 1031.1 |
| 20260507203903 | 87 | 297 | 9.0 | 13.0 | 0.00 | 0.00 | 0.00 | 28 | 1031.2 |
| 20260507203403 | 86 | 295 | 8.0 | 13.0 | 0.00 | 0.00 | 0.00 | 28 | 1031.2 |
| 20260507202903 | 86 | 331 | 8.0 | 13.0 | 0.00 | 0.00 | 0.00 | 28 | 1031.3 |
| 20260507202404 | 86 | 296 | 7.0 | 12.0 | 0.00 | 0.00 | 0.00 | 29 | 1031.3 |
| 20260507201903 | 86 | 4 | 6.0 | 13.0 | 0.00 | 0.00 | 0.00 | 28 | 1031.3 |
| 20260507201404 | 85 | 309 | 7.0 | 13.0 | 0.00 | 0.00 | 0.00 | 30 | 1031.4 |
| 20260507200903 | 85 | 343 | 8.0 | 12.0 | 0.00 | 0.00 | 0.00 | 30 | 1031.4 |
| 20260507200403 | 85 | 327 | 4.0 | 9.0 | 0.00 | 0.00 | 0.00 | 31 | 1031.5 |
| 20260507195904 | 85 | 307 | 5.0 | 12.0 | 0.00 | 0.00 | 0.00 | 32 | 1031.6 |
| 20260507195403 | 85 | 46 | 2.0 | 9.0 | 0.00 | 0.00 | 0.00 | 32 | 1031.7 |
| 20260507194903 | 85 | 357 | 3.0 | 8.0 | 0.00 | 0.00 | 0.00 | 32 | 1031.7 |
| 20260507194404 | 85 | 249 | 3.0 | 8.0 | 0.00 | 0.00 | 0.00 | 33 | 1031.8 |
| 20260507193903 | 84 | 265 | 2.0 | 7.0 | 0.00 | 0.00 | 0.00 | 34 | 1031.8 |
| 20260507193403 | 84 | 284 | 4.0 | 10.0 | 0.00 | 0.00 | 0.00 | 34 | 1031.9 |
| 20260507192904 | 84 | 287 | 1.0 | 7.0 | 0.00 | 0.00 | 0.00 | 35 | 1032.0 |
| 20260507192404 | 83 | 298 | 3.0 | 8.0 | 0.00 | 0.00 | 0.00 | 35 | 1032.1 |
| 20260507191904 | 82 | 262 | 3.0 | 8.0 | 0.00 | 0.00 | 0.00 | 37 | 1032.1 |
| 20260507191403 | 82 | 251 | 3.0 | 8.0 | 0.00 | 0.00 | 0.00 | 37 | 1032.2 |
| 20260507190904 | 81 | 250 | 4.0 | 9.0 | 0.00 | 0.00 | 0.00 | 37 | 1032.4 |
| 20260507185904 | 81 | 270 | 4.0 | 8.0 | 0.00 | 0.00 | 0.00 | 38 | 1032.5 |
| 20260507185404 | 81 | 286 | 5.0 | 9.0 | 0.00 | 0.00 | 0.00 | 37 | 1032.5 |
| 20260507184904 | 80 | 319 | 2.0 | 5.0 | 0.00 | 0.00 | 0.00 | 38 | 1032.6 |
| 20260507184403 | 80 | 293 | 3.0 | 7.0 | 0.00 | 0.00 | 0.00 | 38 | 1032.7 |
| 20260507183903 | 80 | 282 | 2.0 | 5.0 | 0.00 | 0.00 | 0.00 | 40 | 1032.8 |
| 20260507183404 | 79 | 219 | 3.0 | 8.0 | 0.00 | 0.00 | 0.00 | 40 | 1032.9 |
| 20260507182904 | 79 | 250 | 4.0 | 8.0 | 0.00 | 0.00 | 0.00 | 41 | 1032.9 |
| 20260507182403 | 79 | 300 | 3.0 | 6.0 | 0.00 | 0.00 | 0.00 | 43 | 1033.0 |
| 20260507181403 | 78 | 297 | 2.0 | 7.0 | 0.00 | 0.00 | 0.00 | 43 | 1033.1 |
| 20260507180904 | 78 | 239 | 1.0 | 5.0 | 0.00 | 0.00 | 0.00 | 44 | 1033.2 |
| 20260507180405 | 77 | 327 | 0.0 | 3.0 | 0.00 | 0.00 | 0.00 | 43 | 1033.3 |
| 20260507175903 | 77 | 296 | 3.0 | 7.0 | 0.00 | 0.00 | 0.00 | 44 | 1033.4 |
| 20260507175404 | 77 | 298 | 3.0 | 5.0 | 0.00 | 0.00 | 0.00 | 45 | 1033.4 |
| 20260507174903 | 76 | 237 | 3.0 | 7.0 | 0.00 | 0.00 | 0.00 | 46 | 1033.4 |
| 20260507174403 | 76 | 265 | 3.0 | 8.0 | 0.00 | 0.00 | 0.00 | 47 | 1033.4 |
| 20260507173903 | 76 | 260 | 2.0 | 6.0 | 0.00 | 0.00 | 0.00 | 47 | 1033.4 |
| 20260507173403 | 75 | 266 | 3.0 | 12.0 | 0.00 | 0.00 | 0.00 | 47 | 1033.5 |
| 20260507172903 | 75 | 188 | 2.0 | 3.0 | 0.00 | 0.00 | 0.00 | 48 | 1033.5 |
| 20260507172404 | 74 | 212 | 3.0 | 6.0 | 0.00 | 0.00 | 0.00 | 47 | 1033.5 |
| 20260507171403 | 74 | 227 | 3.0 | 5.0 | 0.00 | 0.00 | 0.00 | 47 | 1033.6 |
| 20260507170903 | 74 | 198 | 2.0 | 3.0 | 0.00 | 0.00 | 0.00 | 48 | 1033.8 |
| 20260507170403 | 74 | 237 | 2.0 | 5.0 | 0.00 | 0.00 | 0.00 | 48 | 1033.8 |
| 20260507165904 | 73 | 34 | 0.0 | 1.0 | 0.00 | 0.00 | 0.00 | 51 | 1033.8 |
| 20260507165403 | 73 | 34 | 1.0 | 2.0 | 0.00 | 0.00 | 0.00 | 51 | 1033.7 |
| 20260507164903 | 72 | 34 | 1.0 | 3.0 | 0.00 | 0.00 | 0.00 | 52 | 1033.8 |
| 20260507164404 | 72 | 207 | 1.0 | 3.0 | 0.00 | 0.00 | 0.00 | 53 | 1033.8 |
| 20260507163903 | 71 | 216 | 1.0 | 3.0 | 0.00 | 0.00 | 0.00 | 55 | 1033.8 |
| 20260507163403 | 70 | 208 | 1.0 | 2.0 | 0.00 | 0.00 | 0.00 | 57 | 1033.8 |
| 20260507162903 | 69 | 276 | 1.0 | 3.0 | 0.00 | 0.00 | 0.00 | 58 | 1033.9 |
| 20260507162403 | 69 | 259 | 0.0 | 3.0 | 0.00 | 0.00 | 0.00 | 58 | 1033.9 |
| 20260507161903 | 68 | 326 | 0.0 | 0.0 | 0.00 | 0.00 | 0.00 | 59 | 1034.0 |
| 20260507161403 | 67 | 326 | 0.0 | 0.0 | 0.00 | 0.00 | 0.00 | 61 | 1034.0 |
| 20260507160903 | 67 | 326 | 0.0 | 2.0 | 0.00 | 0.00 | 0.00 | 61 | 1034.1 |
| 20260507155903 | 66 | 314 | 1.0 | 3.0 | 0.00 | 0.00 | 0.00 | 63 | 1034.1 |
| 20260507155403 | 65 | 297 | 2.0 | 3.0 | 0.00 | 0.00 | 0.00 | 62 | 1034.2 |
| 20260507154903 | 65 | 327 | 1.0 | 3.0 | 0.00 | 0.00 | 0.00 | 63 | 1034.2 |
| 20260507153903 | 64 | 238 | 0.0 | 0.0 | 0.00 | 0.00 | 0.00 | 64 | 1034.2 |
| 20260507153403 | 64 | 238 | 0.0 | 1.0 | 0.00 | 0.00 | 0.00 | 65 | 1034.2 |
| 20260507152903 | 64 | 135 | 0.0 | 2.0 | 0.00 | 0.00 | 0.00 | 66 | 1034.2 |
| 20260507151903 | 62 | 135 | 0.0 | 0.0 | 0.00 | 0.00 | 0.00 | 68 | 1034.2 |
| 20260507150403 | 61 | 135 | 0.0 | 0.0 | 0.00 | 0.00 | 0.00 | 72 | 1034.2 |
| 20260507145903 | 60 | 135 | 0.0 | 0.0 | 0.00 | 0.00 | 0.00 | 74 | 1034.2 |
| 20260507145403 | 60 | 135 | 0.0 | 1.0 | 0.00 | 0.00 | 0.00 | 74 | 1034.2 |
| 20260507144903 | 59 | 135 | 0.0 | 0.0 | 0.00 | 0.00 | 0.00 | 76 | 1034.2 |
| 20260507144403 | 58 | 135 | 0.0 | 0.0 | 0.00 | 0.00 | 0.00 | 77 | 1034.2 |
| 20260507143903 | 58 | 135 | 0.0 | 0.0 | 0.00 | 0.00 | 0.00 | 79 | 1034.2 |
| 20260507143403 | 57 | 135 | 0.0 | 0.0 | 0.00 | 0.00 | 0.00 | 80 | 1034.2 |
| 20260507142903 | 57 | 136 | 0.0 | 0.0 | 0.00 | 0.00 | 0.00 | 80 | 1034.3 |
| 20260507142403 | 57 | 136 | 0.0 | 0.0 | 0.00 | 0.00 | 0.00 | 81 | 1034.4 |
| 20260507141904 | 56 | 136 | 0.0 | 0.0 | 0.00 | 0.00 | 0.00 | 81 | 1034.3 |
| 20260507140403 | 55 | 136 | 0.0 | 0.0 | 0.00 | 0.00 | 0.00 | 83 | 1034.2 |
| 20260507135903 | 55 | 136 | 0.0 | 0.0 | 0.00 | 0.00 | 0.00 | 84 | 1034.1 |
| 20260507135404 | 54 | 136 | 0.0 | 0.0 | 0.00 | 0.00 | 0.00 | 84 | 1034.1 |
| 20260507134904 | 54 | 136 | 0.0 | 0.0 | 0.00 | 0.00 | 0.00 | 84 | 1034.2 |
| 20260507134403 | 54 | 136 | 0.0 | 0.0 | 0.00 | 0.00 | 0.00 | 84 | 1034.1 |
| 20260507133903 | 53 | 136 | 0.0 | 0.0 | 0.00 | 0.00 | 0.00 | 84 | 1034.1 |
| 20260507133404 | 53 | 136 | 0.0 | 0.0 | 0.00 | 0.00 | 0.00 | 84 | 1034.1 |
| 20260507132903 | 53 | 136 | 0.0 | 0.0 | 0.00 | 0.00 | 0.00 | 84 | 1034.0 |
| 20260507132403 | 53 | 136 | 0.0 | 0.0 | 0.00 | 0.00 | 0.00 | 84 | 1034.0 |
| 20260507131903 | 53 | 136 | 0.0 | 0.0 | 0.00 | 0.00 | 0.00 | 84 | 1034.0 |
| 20260507131404 | 53 | 136 | 0.0 | 0.0 | 0.00 | 0.00 | 0.00 | 84 | 1033.9 |
| 20260507130903 | 53 | 136 | 0.0 | 0.0 | 0.00 | 0.00 | 0.00 | 84 | 1033.9 |
| 20260507130403 | 53 | 136 | 0.0 | 2.0 | 0.00 | 0.00 | 0.00 | 84 | 1033.9 |
| 20260507125404 | 53 | 136 | 0.0 | 0.0 | 0.00 | 0.00 | 0.00 | 83 | 1033.8 |
| 20260507124903 | 53 | 136 | 0.0 | 2.0 | 0.00 | 0.00 | 0.00 | 83 | 1033.8 |
| 20260507124404 | 53 | 136 | 1.0 | 2.0 | 0.00 | 0.00 | 0.00 | 82 | 1033.7 |
| 20260507123903 | 53 | 136 | 0.0 | 0.0 | 0.00 | 0.00 | 0.00 | 82 | 1033.6 |
| 20260507122903 | 54 | 136 | 0.0 | 0.0 | 0.00 | 0.00 | 0.00 | 82 | 1033.8 |
| 20260507122403 | 54 | 136 | 0.0 | 0.0 | 0.00 | 0.00 | 0.00 | 81 | 1033.9 |
| 20260507121903 | 54 | 136 | 0.0 | 0.0 | 0.00 | 0.00 | 0.00 | 81 | 1033.8 |
| 20260507121403 | 54 | 136 | 0.0 | 0.0 | 0.00 | 0.00 | 0.00 | 80 | 1033.8 |
| 20260507115403 | 55 | 136 | 0.0 | 2.0 | 0.00 | 0.00 | 0.00 | 81 | 1033.7 |
| 20260507114903 | 55 | 136 | 2.0 | 3.0 | 0.00 | 0.00 | 0.00 | 81 | 1033.8 |
| 20260507114404 | 55 | 105 | 0.0 | 3.0 | 0.00 | 0.00 | 0.00 | 81 | 1033.9 |
| 20260507113904 | 55 | 105 | 1.0 | 3.0 | 0.00 | 0.00 | 0.00 | 81 | 1033.9 |
| 20260507113403 | 55 | 105 | 1.0 | 3.0 | 0.00 | 0.00 | 0.00 | 81 | 1034.0 |
| 20260507112903 | 55 | 153 | 0.0 | 0.0 | 0.00 | 0.00 | 0.00 | 81 | 1034.0 |
| 20260507111904 | 55 | 153 | 0.0 | 0.0 | 0.00 | 0.00 | 0.00 | 81 | 1034.0 |
| 20260507111404 | 55 | 153 | 0.0 | 0.0 | 0.00 | 0.00 | 0.00 | 81 | 1034.1 |
| 20260507110403 | 55 | 153 | 0.0 | 0.0 | 0.00 | 0.00 | 0.00 | 80 | 1034.2 |
| 20260507105904 | 55 | 153 | 0.0 | 1.0 | 0.00 | 0.00 | 0.00 | 80 | 1034.2 |
| 20260507105404 | 55 | 153 | 0.0 | 0.0 | 0.00 | 0.00 | 0.00 | 80 | 1034.2 |
| 20260507104904 | 56 | 153 | 0.0 | 0.0 | 0.00 | 0.00 | 0.00 | 80 | 1034.1 |
| 20260507104403 | 56 | 153 | 0.0 | 1.0 | 0.00 | 0.00 | 0.00 | 80 | 1034.2 |
| 20260507103903 | 56 | 153 | 0.0 | 2.0 | 0.00 | 0.00 | 0.00 | 80 | 1034.2 |
| 20260507103403 | 56 | 153 | 1.0 | 3.0 | 0.00 | 0.00 | 0.00 | 80 | 1034.3 |
| 20260507102903 | 56 | 153 | 1.0 | 3.0 | 0.00 | 0.00 | 0.00 | 80 | 1034.3 |
| 20260507101403 | 56 | 223 | 0.0 | 0.0 | 0.00 | 0.00 | 0.00 | 80 | 1034.5 |
| 20260507100404 | 56 | 223 | 0.0 | 0.0 | 0.00 | 0.00 | 0.00 | 80 | 1034.5 |
| 20260507095903 | 56 | 223 | 0.0 | 0.0 | 0.00 | 0.00 | 0.00 | 80 | 1034.5 |
| 20260507095403 | 57 | 223 | 0.0 | 0.0 | 0.00 | 0.00 | 0.00 | 80 | 1034.6 |
| 20260507094904 | 57 | 223 | 0.0 | 0.0 | 0.00 | 0.00 | 0.00 | 80 | 1034.6 |
| 20260507094403 | 57 | 223 | 0.0 | 0.0 | 0.00 | 0.00 | 0.00 | 79 | 1034.7 |
| 20260507093903 | 57 | 223 | 0.0 | 3.0 | 0.00 | 0.00 | 0.00 | 79 | 1034.6 |
| 20260507093404 | 57 | 223 | 0.0 | 1.0 | 0.00 | 0.00 | 0.00 | 78 | 1034.7 |
| 20260507092903 | 57 | 223 | 0.0 | 0.0 | 0.00 | 0.00 | 0.00 | 78 | 1034.7 |
| 20260507092403 | 57 | 223 | 0.0 | 0.0 | 0.00 | 0.00 | 0.00 | 78 | 1034.7 |
| 20260507091903 | 57 | 223 | 0.0 | 0.0 | 0.00 | 0.00 | 0.00 | 77 | 1034.7 |
| 20260507091404 | 57 | 223 | 0.0 | 0.0 | 0.00 | 0.00 | 0.00 | 77 | 1034.7 |
| 20260507090904 | 57 | 223 | 0.0 | 0.0 | 0.00 | 0.00 | 0.00 | 77 | 1034.8 |
| 20260507085903 | 58 | 223 | 0.0 | 0.0 | 0.00 | 0.00 | 0.00 | 77 | 1034.9 |
| 20260507085403 | 58 | 223 | 0.0 | 0.0 | 0.00 | 0.00 | 0.00 | 76 | 1035.0 |